| time (UTC) | temp F | wind direction | speed knots | gust knots | rain 1hr in | rain 24hr in | rain mn in | humidity % | barometer mb |
| 20260905140911 | 92 | 176 | 0.9 | 2.6 | 0.00 | 0.00 | 0.00 | 34 | 1016.3 |
| 20260905140412 | 92 | 203 | 1.7 | 2.6 | 0.00 | 0.00 | 0.00 | 36 | 1016.3 |
| 20260905135913 | 92 | 234 | 1.7 | 2.6 | 0.00 | 0.00 | 0.00 | 37 | 1016.3 |
| 20260905135411 | 91 | 232 | 1.7 | 2.6 | 0.00 | 0.00 | 0.00 | 38 | 1016.4 |
| 20260905134913 | 91 | 239 | 0.9 | 2.6 | 0.00 | 0.00 | 0.00 | 38 | 1016.4 |
| 20260905134417 | 90 | 226 | 1.7 | 2.6 | 0.00 | 0.00 | 0.00 | 39 | 1016.4 |
| 20260905133912 | 90 | 223 | 2.6 | 2.6 | 0.00 | 0.00 | 0.00 | 41 | 1016.5 |
| 20260905133411 | 91 | 227 | 1.7 | 4.3 | 0.00 | 0.00 | 0.00 | 42 | 1016.6 |
| 20260905132912 | 90 | 222 | 1.7 | 2.6 | 0.00 | 0.00 | 0.00 | 42 | 1016.6 |
| 20260905132412 | 90 | 212 | 1.7 | 2.6 | 0.00 | 0.00 | 0.00 | 42 | 1016.7 |
| 20260905131911 | 90 | 229 | 1.7 | 2.6 | 0.00 | 0.00 | 0.00 | 42 | 1016.7 |
| 20260905131412 | 90 | 226 | 2.6 | 2.6 | 0.00 | 0.00 | 0.00 | 41 | 1016.7 |
| 20260905130411 | 89 | 229 | 1.7 | 2.6 | 0.00 | 0.00 | 0.00 | 44 | 1016.8 |
| 20260905125911 | 89 | 227 | 2.6 | 2.6 | 0.00 | 0.00 | 0.00 | 43 | 1016.9 |
| 20260905125411 | 89 | 232 | 2.6 | 2.6 | 0.00 | 0.00 | 0.00 | 44 | 1016.9 |
| 20260905124913 | 89 | 222 | 2.6 | 2.6 | 0.00 | 0.00 | 0.00 | 43 | 1017.0 |
| 20260905124414 | 89 | 231 | 2.6 | 2.6 | 0.00 | 0.00 | 0.00 | 45 | 1017.0 |
| 20260905123912 | 89 | 230 | 2.6 | 2.6 | 0.00 | 0.00 | 0.00 | 50 | 1017.1 |
| 20260905123413 | 89 | 226 | 1.7 | 2.6 | 0.00 | 0.00 | 0.00 | 48 | 1017.2 |
| 20260905122911 | 90 | 221 | 2.6 | 2.6 | 0.00 | 0.00 | 0.00 | 46 | 1017.2 |
| 20260905122412 | 90 | 250 | 1.7 | 2.6 | 0.00 | 0.00 | 0.00 | 44 | 1017.2 |
| 20260905121912 | 89 | 244 | 2.6 | 2.6 | 0.00 | 0.00 | 0.00 | 42 | 1017.1 |
| 20260905121412 | 89 | 203 | 2.6 | 2.6 | 0.00 | 0.00 | 0.00 | 42 | 1017.1 |
| 20260905120912 | 89 | 220 | 2.6 | 2.6 | 0.00 | 0.00 | 0.00 | 40 | 1017.2 |
| 20260905115912 | 89 | 221 | 1.7 | 2.6 | 0.00 | 0.00 | 0.00 | 40 | 1017.3 |
| 20260905115411 | 89 | 235 | 2.6 | 2.6 | 0.00 | 0.00 | 0.00 | 37 | 1017.3 |
| 20260905114916 | 89 | 231 | 2.6 | 4.3 | 0.00 | 0.00 | 0.00 | 34 | 1017.3 |
| 20260905114416 | 89 | 237 | 2.6 | 2.6 | 0.00 | 0.00 | 0.00 | 36 | 1017.3 |
| 20260905113911 | 89 | 232 | 2.6 | 2.6 | 0.00 | 0.00 | 0.00 | 30 | 1017.4 |
| 20260905113412 | 90 | 236 | 2.6 | 2.6 | 0.00 | 0.00 | 0.00 | 28 | 1017.4 |
| 20260905112912 | 89 | 236 | 1.7 | 2.6 | 0.00 | 0.00 | 0.00 | 29 | 1017.5 |
| 20260905112412 | 89 | 233 | 1.7 | 2.6 | 0.00 | 0.00 | 0.00 | 32 | 1017.5 |
| 20260905111912 | 88 | 249 | 1.7 | 2.6 | 0.00 | 0.00 | 0.00 | 31 | 1017.5 |
| 20260905111411 | 88 | 244 | 2.6 | 2.6 | 0.00 | 0.00 | 0.00 | 34 | 1017.5 |
| 20260905110412 | 88 | 233 | 2.6 | 2.6 | 0.00 | 0.00 | 0.00 | 32 | 1017.6 |
| 20260905105912 | 87 | 247 | 2.6 | 2.6 | 0.00 | 0.00 | 0.00 | 33 | 1017.6 |
| 20260905105412 | 87 | 234 | 1.7 | 2.6 | 0.00 | 0.00 | 0.00 | 37 | 1017.6 |
| 20260905104911 | 87 | 235 | 2.6 | 2.6 | 0.00 | 0.00 | 0.00 | 36 | 1017.7 |
| 20260905103911 | 87 | 234 | 1.7 | 2.6 | 0.00 | 0.00 | 0.00 | 35 | 1017.7 |
| 20260905103412 | 87 | 239 | 2.6 | 2.6 | 0.00 | 0.00 | 0.00 | 40 | 1017.8 |
| 20260905102412 | 87 | 248 | 1.7 | 2.6 | 0.00 | 0.00 | 0.00 | 41 | 1017.8 |
| 20260905101411 | 86 | 249 | 1.7 | 2.6 | 0.00 | 0.00 | 0.00 | 48 | 1017.9 |
| 20260905100913 | 86 | 242 | 1.7 | 2.6 | 0.00 | 0.00 | 0.00 | 43 | 1017.9 |
| 20260905100412 | 86 | 235 | 1.7 | 2.6 | 0.00 | 0.00 | 0.00 | 47 | 1017.9 |
| 20260905095412 | 86 | 236 | 1.7 | 2.6 | 0.00 | 0.00 | 0.00 | 44 | 1017.9 |
| 20260905094912 | 87 | 234 | 1.7 | 2.6 | 0.00 | 0.00 | 0.00 | 39 | 1018.0 |
| 20260905094411 | 86 | 241 | 1.7 | 2.6 | 0.00 | 0.00 | 0.00 | 39 | 1018.0 |
| 20260905093412 | 86 | 235 | 2.6 | 2.6 | 0.00 | 0.00 | 0.00 | 36 | 1018.1 |
| 20260905092912 | 85 | 241 | 1.7 | 2.6 | 0.00 | 0.00 | 0.00 | 42 | 1018.1 |
| 20260905092411 | 85 | 245 | 1.7 | 2.6 | 0.00 | 0.00 | 0.00 | 44 | 1018.1 |
| 20260905091411 | 85 | 249 | 1.7 | 2.6 | 0.00 | 0.00 | 0.00 | 41 | 1018.2 |
| 20260905090913 | 85 | 248 | 1.7 | 2.6 | 0.00 | 0.00 | 0.00 | 43 | 1018.2 |
| 20260905085913 | 83 | 243 | 1.7 | 2.6 | 0.00 | 0.00 | 0.00 | 43 | 1018.2 |
| 20260905085411 | 83 | 235 | 1.7 | 2.6 | 0.00 | 0.00 | 0.00 | 48 | 1018.2 |
| 20260905084911 | 83 | 239 | 1.7 | 2.6 | 0.00 | 0.00 | 0.00 | 51 | 1018.2 |
| 20260905084412 | 82 | 214 | 1.7 | 2.6 | 0.00 | 0.00 | 0.00 | 54 | 1018.3 |
| 20260905083911 | 82 | 259 | 0.9 | 2.6 | 0.00 | 0.00 | 0.00 | 56 | 1018.3 |
| 20260905083411 | 82 | 281 | 1.7 | 2.6 | 0.00 | 0.00 | 0.00 | 56 | 1018.3 |
| 20260905082912 | 82 | 234 | 1.7 | 2.6 | 0.00 | 0.00 | 0.00 | 57 | 1018.3 |
| 20260905082419 | 82 | 218 | 1.7 | 2.6 | 0.00 | 0.00 | 0.00 | 56 | 1018.3 |
| 20260905081911 | 82 | 269 | 1.7 | 2.6 | 0.00 | 0.00 | 0.00 | 56 | 1018.3 |
| 20260905081412 | 82 | 242 | 1.7 | 2.6 | 0.00 | 0.00 | 0.00 | 55 | 1018.2 |
| 20260905080912 | 81 | 249 | 1.7 | 2.6 | 0.00 | 0.00 | 0.00 | 56 | 1018.2 |
| 20260905080413 | 81 | 244 | 1.7 | 2.6 | 0.00 | 0.00 | 0.00 | 58 | 1018.1 |
| 20260905075912 | 81 | 261 | 1.7 | 2.6 | 0.00 | 0.00 | 0.00 | 56 | 1018.1 |
| 20260905075412 | 81 | 253 | 1.7 | 2.6 | 0.00 | 0.00 | 0.00 | 58 | 1018.0 |
| 20260905074912 | 81 | 244 | 1.7 | 2.6 | 0.00 | 0.00 | 0.00 | 56 | 1017.9 |
| 20260905074413 | 82 | 222 | 1.7 | 2.6 | 0.00 | 0.00 | 0.00 | 54 | 1017.9 |
| 20260905073913 | 82 | 222 | 1.7 | 2.6 | 0.00 | 0.00 | 0.00 | 51 | 1017.8 |
| 20260905072912 | 83 | 235 | 1.7 | 2.6 | 0.00 | 0.00 | 0.00 | 50 | 1017.7 |
| 20260905072411 | 82 | 227 | 0.9 | 2.6 | 0.00 | 0.00 | 0.00 | 50 | 1017.7 |
| 20260905071912 | 82 | 217 | 0.9 | 2.6 | 0.00 | 0.00 | 0.00 | 50 | 1017.6 |
| 20260905071411 | 82 | 216 | 0.9 | 2.6 | 0.00 | 0.00 | 0.00 | 51 | 1017.6 |
| 20260905070913 | 82 | 224 | 0.9 | 2.6 | 0.00 | 0.00 | 0.00 | 52 | 1017.6 |
| 20260905070411 | 82 | 224 | 0.0 | 0.0 | 0.00 | 0.00 | 0.00 | 51 | 1017.6 |
| 20260905065411 | 83 | 224 | 0.0 | 0.0 | 0.00 | 0.00 | 0.00 | 51 | 1017.5 |
| 20260905064911 | 83 | 224 | 0.0 | 0.0 | 0.00 | 0.00 | 0.00 | 50 | 1017.5 |
| 20260905064412 | 83 | 224 | 0.0 | 0.0 | 0.00 | 0.00 | 0.00 | 51 | 1017.5 |
| 20260905063411 | 82 | 224 | 0.0 | 0.0 | 0.00 | 0.00 | 0.00 | 53 | 1017.5 |
| 20260905062911 | 81 | 224 | 0.0 | 0.0 | 0.00 | 0.00 | 0.00 | 54 | 1017.5 |
| 20260905062411 | 80 | 224 | 0.0 | 0.0 | 0.00 | 0.00 | 0.00 | 56 | 1017.6 |
| 20260905061912 | 80 | 224 | 0.0 | 0.0 | 0.00 | 0.00 | 0.00 | 57 | 1017.6 |
| 20260905061411 | 79 | 224 | 0.0 | 0.0 | 0.00 | 0.00 | 0.00 | 57 | 1017.7 |
| 20260905060911 | 79 | 224 | 0.0 | 0.0 | 0.00 | 0.00 | 0.00 | 57 | 1017.7 |
| 20260905060412 | 79 | 224 | 0.0 | 0.0 | 0.00 | 0.00 | 0.00 | 57 | 1017.7 |
| 20260905055912 | 79 | 224 | 0.0 | 1.7 | 0.00 | 0.00 | 0.00 | 56 | 1017.7 |
| 20260905055412 | 79 | 224 | 0.9 | 1.7 | 0.00 | 0.00 | 0.00 | 56 | 1017.7 |
| 20260905054911 | 79 | 224 | 0.9 | 2.6 | 0.00 | 0.00 | 0.00 | 55 | 1017.7 |
| 20260905054412 | 79 | 224 | 0.9 | 1.7 | 0.00 | 0.00 | 0.00 | 52 | 1017.7 |
| 20260905053912 | 79 | 224 | 0.9 | 1.7 | 0.00 | 0.00 | 0.00 | 51 | 1017.7 |
| 20260905053413 | 80 | 224 | 0.9 | 2.6 | 0.00 | 0.00 | 0.00 | 50 | 1017.6 |
| 20260905052912 | 80 | 224 | 0.0 | 1.7 | 0.00 | 0.00 | 0.00 | 53 | 1017.6 |
| 20260905052413 | 80 | 224 | 0.0 | 0.0 | 0.00 | 0.00 | 0.00 | 54 | 1017.6 |
| 20260905051912 | 79 | 224 | 0.0 | 0.0 | 0.00 | 0.00 | 0.00 | 55 | 1017.6 |
| 20260905051412 | 79 | 224 | 0.0 | 0.0 | 0.00 | 0.00 | 0.00 | 55 | 1017.6 |
| 20260905050411 | 78 | 224 | 0.0 | 0.9 | 0.00 | 0.00 | 0.00 | 56 | 1017.6 |
| 20260905045911 | 79 | 224 | 0.9 | 1.7 | 0.00 | 0.00 | 0.00 | 56 | 1017.6 |
| 20260905045411 | 78 | 288 | 0.0 | 0.0 | 0.00 | 0.00 | 0.00 | 54 | 1017.5 |
| 20260905044912 | 78 | 288 | 0.0 | 0.9 | 0.00 | 0.00 | 0.00 | 55 | 1017.5 |
| 20260905044412 | 78 | 288 | 0.0 | 0.0 | 0.00 | 0.00 | 0.00 | 53 | 1017.5 |
| 20260905043412 | 78 | 296 | 0.0 | 0.0 | 0.00 | 0.00 | 0.00 | 54 | 1017.4 |
| 20260905042411 | 78 | 314 | 0.0 | 0.9 | 0.00 | 0.00 | 0.00 | 56 | 1017.3 |
| 20260905041911 | 78 | 314 | 0.9 | 1.7 | 0.00 | 0.00 | 0.00 | 56 | 1017.3 |
| 20260905041411 | 78 | 265 | 0.9 | 1.7 | 0.00 | 0.00 | 0.00 | 56 | 1017.3 |
| 20260905040411 | 78 | 241 | 0.9 | 2.6 | 0.00 | 0.00 | 0.00 | 58 | 1017.2 |
| 20260905035911 | 78 | 263 | 1.7 | 2.6 | 0.00 | 0.00 | 0.00 | 56 | 1017.2 |
| 20260905035411 | 78 | 255 | 1.7 | 2.6 | 0.00 | 0.00 | 0.00 | 55 | 1017.1 |
| 20260905034411 | 78 | 289 | 0.9 | 1.7 | 0.00 | 0.00 | 0.00 | 57 | 1017.1 |
| 20260905033911 | 78 | 262 | 0.9 | 1.7 | 0.00 | 0.00 | 0.00 | 57 | 1017.1 |
| 20260905033411 | 78 | 257 | 1.7 | 2.6 | 0.00 | 0.00 | 0.00 | 57 | 1017.1 |
| 20260905032912 | 78 | 261 | 1.7 | 1.7 | 0.00 | 0.00 | 0.00 | 57 | 1017.1 |
| 20260905032409 | 78 | 247 | 1.7 | 2.6 | 0.00 | 0.00 | 0.00 | 56 | 1017.1 |
| 20260905031911 | 78 | 284 | 1.7 | 2.6 | 0.00 | 0.00 | 0.00 | 56 | 1017.0 |
| 20260905031410 | 78 | 262 | 1.7 | 2.6 | 0.00 | 0.00 | 0.00 | 55 | 1017.1 |
| 20260905030911 | 78 | 272 | 1.7 | 2.6 | 0.00 | 0.00 | 0.00 | 55 | 1017.1 |
| 20260905030411 | 78 | 284 | 1.7 | 2.6 | 0.00 | 0.00 | 0.00 | 54 | 1017.1 |
| 20260905025910 | 78 | 298 | 1.7 | 2.6 | 0.00 | 0.00 | 0.00 | 52 | 1017.1 |
| 20260905025412 | 78 | 247 | 0.9 | 2.6 | 0.00 | 0.00 | 0.00 | 54 | 1017.1 |
| 20260905024911 | 78 | 251 | 1.7 | 2.6 | 0.00 | 0.00 | 0.00 | 55 | 1017.0 |
| 20260905024411 | 78 | 266 | 0.9 | 1.7 | 0.00 | 0.00 | 0.00 | 56 | 1017.0 |
| 20260905023910 | 78 | 286 | 1.7 | 2.6 | 0.00 | 0.00 | 0.00 | 57 | 1017.0 |
| 20260905023411 | 78 | 277 | 0.9 | 2.6 | 0.00 | 0.00 | 0.00 | 58 | 1017.0 |
| 20260905022910 | 78 | 291 | 1.7 | 2.6 | 0.00 | 0.00 | 0.00 | 58 | 1017.0 |
| 20260905022411 | 78 | 293 | 1.7 | 2.6 | 0.00 | 0.00 | 0.00 | 58 | 1017.1 |
| 20260905021911 | 78 | 284 | 1.7 | 2.6 | 0.00 | 0.00 | 0.00 | 57 | 1017.1 |
| 20260905021411 | 79 | 249 | 1.7 | 2.6 | 0.00 | 0.00 | 0.00 | 57 | 1017.0 |
| 20260905020911 | 79 | 258 | 1.7 | 2.6 | 0.00 | 0.00 | 0.00 | 56 | 1017.1 |
| 20260905020411 | 79 | 258 | 0.9 | 2.6 | 0.00 | 0.00 | 0.00 | 55 | 1017.1 |
| 20260905015911 | 79 | 248 | 1.7 | 2.6 | 0.00 | 0.00 | 0.00 | 55 | 1017.2 |
| 20260905015411 | 80 | 274 | 1.7 | 2.6 | 0.00 | 0.00 | 0.00 | 56 | 1017.2 |
| 20260905014910 | 80 | 248 | 0.9 | 2.6 | 0.00 | 0.00 | 0.00 | 58 | 1017.2 |
| 20260905014410 | 80 | 261 | 1.7 | 2.6 | 0.00 | 0.00 | 0.00 | 58 | 1017.2 |
| 20260905012910 | 80 | 307 | 0.0 | 1.7 | 0.00 | 0.00 | 0.00 | 58 | 1017.3 |
| 20260905012411 | 81 | 273 | 0.9 | 2.6 | 0.00 | 0.00 | 0.00 | 58 | 1017.2 |
| 20260905011911 | 80 | 288 | 1.7 | 2.6 | 0.00 | 0.00 | 0.00 | 58 | 1017.3 |
| 20260905011410 | 80 | 288 | 1.7 | 2.6 | 0.00 | 0.00 | 0.00 | 60 | 1017.3 |
| 20260905010910 | 80 | 280 | 1.7 | 2.6 | 0.00 | 0.00 | 0.00 | 61 | 1017.3 |
| 20260905010411 | 80 | 279 | 1.7 | 2.6 | 0.00 | 0.00 | 0.00 | 62 | 1017.3 |
| 20260905005911 | 81 | 272 | 1.7 | 2.6 | 0.00 | 0.00 | 0.00 | 60 | 1017.3 |
| 20260905004911 | 81 | 305 | 1.7 | 2.6 | 0.00 | 0.00 | 0.00 | 56 | 1017.3 |
| 20260905004412 | 81 | 244 | 1.7 | 2.6 | 0.00 | 0.00 | 0.00 | 59 | 1017.3 |
| 20260905003912 | 81 | 224 | 1.7 | 2.6 | 0.00 | 0.00 | 0.00 | 60 | 1017.2 |
| 20260905003411 | 81 | 235 | 1.7 | 2.6 | 0.00 | 0.00 | 0.00 | 56 | 1017.2 |
| 20260905002911 | 81 | 222 | 1.7 | 2.6 | 0.00 | 0.00 | 0.00 | 51 | 1017.2 |
| 20260905002411 | 81 | 218 | 1.7 | 2.6 | 0.00 | 0.00 | 0.00 | 48 | 1017.3 |
| 20260905001911 | 81 | 205 | 1.7 | 2.6 | 0.00 | 0.00 | 0.00 | 47 | 1017.3 |
| 20260905001411 | 81 | 228 | 1.7 | 2.6 | 0.00 | 0.00 | 0.00 | 43 | 1017.3 |
| 20260905000911 | 81 | 137 | 1.7 | 2.6 | 0.00 | 0.00 | 0.00 | 43 | 1017.2 |
| 20260904235911 | 81 | 134 | 0.0 | 0.9 | 0.00 | 0.00 | 0.00 | 44 | 1017.2 |
| 20260904235411 | 81 | 134 | 0.0 | 0.0 | 0.00 | 0.00 | 0.00 | 44 | 1017.2 |
| 20260904234911 | 82 | 134 | 0.9 | 1.7 | 0.00 | 0.00 | 0.00 | 43 | 1017.2 |
| 20260904234411 | 82 | 134 | 0.0 | 0.9 | 0.00 | 0.00 | 0.00 | 43 | 1017.2 |
| 20260904233911 | 82 | 133 | 1.7 | 2.6 | 0.00 | 0.00 | 0.00 | 42 | 1017.2 |
| 20260904232911 | 82 | 357 | 0.9 | 2.6 | 0.00 | 0.00 | 0.00 | 40 | 1017.2 |
| 20260904232410 | 82 | 65 | 0.9 | 1.7 | 0.00 | 0.00 | 0.00 | 41 | 1017.2 |
| 20260904231411 | 82 | 35 | 1.7 | 2.6 | 0.00 | 0.00 | 0.00 | 44 | 1017.2 |
| 20260904230911 | 82 | 67 | 0.9 | 2.6 | 0.00 | 0.00 | 0.00 | 45 | 1017.3 |
| 20260904230410 | 82 | 108 | 0.9 | 2.6 | 0.00 | 0.00 | 0.00 | 46 | 1017.4 |
| 20260904225912 | 83 | 126 | 0.9 | 2.6 | 0.00 | 0.00 | 0.00 | 44 | 1017.4 |
| 20260904225410 | 83 | 232 | 0.0 | 2.6 | 0.00 | 0.00 | 0.00 | 39 | 1017.4 |
| 20260904224911 | 83 | 237 | 1.7 | 2.6 | 0.00 | 0.00 | 0.00 | 38 | 1017.4 |
| 20260904224411 | 82 | 305 | 0.9 | 2.6 | 0.00 | 0.00 | 0.00 | 41 | 1017.4 |
| 20260904223911 | 82 | 266 | 0.0 | 4.3 | 0.00 | 0.00 | 0.00 | 45 | 1017.4 |
| 20260904223412 | 81 | 89 | 0.0 | 4.3 | 0.00 | 0.00 | 0.00 | 51 | 1017.4 |
| 20260904222911 | 81 | 112 | 0.0 | 0.0 | 0.00 | 0.00 | 0.00 | 53 | 1017.4 |
| 20260904222411 | 82 | 112 | 0.0 | 1.7 | 0.00 | 0.00 | 0.00 | 53 | 1017.4 |
| 20260904221911 | 82 | 114 | 0.0 | 1.7 | 0.00 | 0.00 | 0.00 | 49 | 1017.5 |
| 20260904221410 | 82 | 117 | 0.0 | 0.0 | 0.00 | 0.00 | 0.00 | 50 | 1017.5 |
| 20260904220910 | 82 | 116 | 0.9 | 2.6 | 0.00 | 0.00 | 0.00 | 46 | 1017.5 |
| 20260904220411 | 83 | 144 | 0.0 | 1.7 | 0.00 | 0.00 | 0.00 | 42 | 1017.5 |
| 20260904215911 | 83 | 131 | 0.0 | 1.7 | 0.00 | 0.00 | 0.00 | 41 | 1017.4 |
| 20260904215410 | 83 | 118 | 0.9 | 2.6 | 0.00 | 0.00 | 0.00 | 40 | 1017.4 |
| 20260904214910 | 83 | 138 | 0.9 | 2.6 | 0.00 | 0.00 | 0.00 | 42 | 1017.4 |
| 20260904214411 | 83 | 258 | 0.0 | 1.7 | 0.00 | 0.00 | 0.00 | 40 | 1017.4 |
| 20260904213911 | 83 | 261 | 0.9 | 2.6 | 0.00 | 0.00 | 0.00 | 39 | 1017.2 |
| 20260904213411 | 84 | 254 | 0.9 | 1.7 | 0.00 | 0.00 | 0.00 | 41 | 1017.1 |
| 20260904212910 | 84 | 254 | 0.9 | 1.7 | 0.00 | 0.00 | 0.00 | 42 | 1017.2 |
| 20260904212411 | 84 | 263 | 0.9 | 2.6 | 0.00 | 0.00 | 0.00 | 40 | 1017.2 |
| 20260904211911 | 85 | 256 | 1.7 | 2.6 | 0.00 | 0.00 | 0.00 | 34 | 1017.2 |
| 20260904211411 | 85 | 261 | 0.9 | 2.6 | 0.00 | 0.00 | 0.00 | 31 | 1017.1 |
| 20260904210410 | 85 | 50 | 0.9 | 2.6 | 0.00 | 0.00 | 0.00 | 31 | 1017.1 |
| 20260904205410 | 85 | 283 | 1.7 | 2.6 | 0.00 | 0.00 | 0.00 | 33 | 1017.2 |
| 20260904204912 | 85 | 281 | 1.7 | 2.6 | 0.00 | 0.00 | 0.00 | 33 | 1017.2 |
| 20260904204413 | 85 | 257 | 1.7 | 1.7 | 0.00 | 0.00 | 0.00 | 32 | 1017.2 |
| 20260904203910 | 85 | 257 | 1.7 | 2.6 | 0.00 | 0.00 | 0.00 | 32 | 1017.2 |
| 20260904203411 | 85 | 270 | 1.7 | 2.6 | 0.00 | 0.00 | 0.00 | 32 | 1017.2 |
| 20260904202910 | 85 | 293 | 0.9 | 2.6 | 0.00 | 0.00 | 0.00 | 32 | 1017.2 |
| 20260904202410 | 85 | 313 | 0.9 | 2.6 | 0.00 | 0.00 | 0.00 | 32 | 1017.2 |
| 20260904201911 | 85 | 226 | 0.9 | 2.6 | 0.00 | 0.00 | 0.00 | 32 | 1017.2 |
| 20260904201411 | 85 | 58 | 0.9 | 2.6 | 0.00 | 0.00 | 0.00 | 32 | 1017.3 |
| 20260904200911 | 85 | 288 | 0.9 | 2.6 | 0.00 | 0.00 | 0.00 | 33 | 1017.2 |
| 20260904200410 | 85 | 340 | 0.9 | 2.6 | 0.00 | 0.00 | 0.00 | 32 | 1017.2 |
| 20260904195911 | 85 | 315 | 1.7 | 2.6 | 0.00 | 0.00 | 0.00 | 33 | 1017.3 |
| 20260904194911 | 85 | 314 | 1.7 | 2.6 | 0.00 | 0.00 | 0.00 | 34 | 1017.3 |
| 20260904193910 | 84 | 293 | 1.7 | 2.6 | 0.00 | 0.00 | 0.00 | 34 | 1017.2 |
| 20260904193411 | 84 | 312 | 1.7 | 2.6 | 0.00 | 0.00 | 0.00 | 35 | 1017.2 |
| 20260904192911 | 84 | 293 | 2.6 | 2.6 | 0.00 | 0.00 | 0.00 | 36 | 1017.2 |
| 20260904192411 | 84 | 306 | 1.7 | 2.6 | 0.00 | 0.00 | 0.00 | 37 | 1017.2 |
| 20260904191910 | 84 | 288 | 0.9 | 2.6 | 0.00 | 0.00 | 0.00 | 39 | 1017.2 |
| 20260904191410 | 84 | 291 | 0.9 | 2.6 | 0.00 | 0.00 | 0.00 | 39 | 1017.2 |
| 20260904190910 | 85 | 299 | 0.9 | 2.6 | 0.00 | 0.00 | 0.00 | 40 | 1017.3 |
| 20260904190411 | 85 | 45 | 1.7 | 2.6 | 0.00 | 0.00 | 0.00 | 39 | 1017.3 |
| 20260904185909 | 85 | 355 | 0.9 | 2.6 | 0.00 | 0.00 | 0.00 | 39 | 1017.2 |
| 20260904185412 | 85 | 349 | 0.9 | 2.6 | 0.00 | 0.00 | 0.00 | 39 | 1017.1 |
| 20260904184910 | 86 | 288 | 0.9 | 2.6 | 0.00 | 0.00 | 0.00 | 39 | 1017.1 |
| 20260904184410 | 86 | 294 | 1.7 | 2.6 | 0.00 | 0.00 | 0.00 | 38 | 1017.1 |
| 20260904183910 | 86 | 317 | 0.9 | 2.6 | 0.00 | 0.00 | 0.00 | 38 | 1017.1 |
| 20260904183411 | 86 | 297 | 0.9 | 2.6 | 0.00 | 0.00 | 0.00 | 38 | 1017.0 |
| 20260904182910 | 86 | 72 | 1.7 | 2.6 | 0.00 | 0.00 | 0.00 | 38 | 1017.0 |
| 20260904182410 | 86 | 312 | 1.7 | 2.6 | 0.00 | 0.00 | 0.00 | 39 | 1017.0 |
| 20260904181911 | 86 | 13 | 0.9 | 2.6 | 0.00 | 0.00 | 0.00 | 39 | 1016.9 |
| 20260904181411 | 86 | 297 | 0.9 | 2.6 | 0.00 | 0.00 | 0.00 | 40 | 1016.9 |
| 20260904180910 | 86 | 358 | 0.9 | 2.6 | 0.00 | 0.00 | 0.00 | 40 | 1016.8 |
| 20260904180411 | 87 | 36 | 1.7 | 2.6 | 0.00 | 0.00 | 0.00 | 40 | 1016.8 |
| 20260904175910 | 87 | 39 | 0.9 | 2.6 | 0.00 | 0.00 | 0.00 | 39 | 1016.8 |
| 20260904174911 | 87 | 23 | 1.7 | 2.6 | 0.00 | 0.00 | 0.00 | 38 | 1016.6 |
| 20260904174411 | 87 | 18 | 1.7 | 2.6 | 0.00 | 0.00 | 0.00 | 37 | 1016.6 |
| 20260904173910 | 87 | 42 | 1.7 | 2.6 | 0.00 | 0.00 | 0.00 | 38 | 1016.5 |
| 20260904173411 | 88 | 29 | 1.7 | 2.6 | 0.00 | 0.00 | 0.00 | 38 | 1016.5 |
| 20260904172911 | 88 | 332 | 1.7 | 2.6 | 0.00 | 0.00 | 0.00 | 37 | 1016.4 |
| 20260904172411 | 88 | 27 | 1.7 | 2.6 | 0.00 | 0.00 | 0.00 | 36 | 1016.4 |
| 20260904171410 | 89 | 338 | 1.7 | 2.6 | 0.00 | 0.00 | 0.00 | 34 | 1016.4 |
| 20260904170910 | 90 | 38 | 0.9 | 2.6 | 0.00 | 0.00 | 0.00 | 33 | 1016.4 |
| 20260904170410 | 90 | 25 | 1.7 | 2.6 | 0.00 | 0.00 | 0.00 | 32 | 1016.3 |
| 20260904165409 | 91 | 22 | 1.7 | 2.6 | 0.00 | 0.00 | 0.00 | 30 | 1016.2 |
| 20260904164410 | 91 | 23 | 0.9 | 2.6 | 0.00 | 0.00 | 0.00 | 30 | 1016.1 |
| 20260904163910 | 91 | 233 | 0.9 | 2.6 | 0.00 | 0.00 | 0.00 | 30 | 1016.1 |
| 20260904163410 | 91 | 47 | 1.7 | 2.6 | 0.00 | 0.00 | 0.00 | 30 | 1016.1 |
| 20260904162911 | 91 | 23 | 1.7 | 2.6 | 0.00 | 0.00 | 0.00 | 30 | 1016.1 |
| 20260904162410 | 92 | 28 | 1.7 | 2.6 | 0.00 | 0.00 | 0.00 | 29 | 1016.0 |
| 20260904161911 | 92 | 314 | 0.9 | 2.6 | 0.00 | 0.00 | 0.00 | 31 | 1016.0 |
| 20260904161410 | 92 | 29 | 1.7 | 2.6 | 0.00 | 0.00 | 0.00 | 30 | 1016.0 |
| 20260904160911 | 92 | 37 | 1.7 | 2.6 | 0.00 | 0.00 | 0.00 | 30 | 1015.9 |
| 20260904160410 | 92 | 60 | 0.9 | 2.6 | 0.00 | 0.00 | 0.00 | 30 | 1015.9 |
| 20260904155910 | 92 | 37 | 1.7 | 2.6 | 0.00 | 0.00 | 0.00 | 30 | 1015.9 |
| 20260904155410 | 92 | 45 | 1.7 | 2.6 | 0.00 | 0.00 | 0.00 | 29 | 1015.9 |
| 20260904154910 | 92 | 46 | 1.7 | 2.6 | 0.00 | 0.00 | 0.00 | 29 | 1015.8 |
| 20260904154410 | 92 | 357 | 1.7 | 2.6 | 0.00 | 0.00 | 0.00 | 28 | 1015.8 |
| 20260904153910 | 93 | 36 | 1.7 | 2.6 | 0.00 | 0.00 | 0.00 | 28 | 1015.9 |
| 20260904153410 | 93 | 8 | 1.7 | 2.6 | 0.00 | 0.00 | 0.00 | 28 | 1015.9 |
| 20260904152909 | 93 | 23 | 0.9 | 2.6 | 0.00 | 0.00 | 0.00 | 28 | 1015.9 |
| 20260904151910 | 93 | 226 | 0.9 | 4.3 | 0.00 | 0.00 | 0.00 | 28 | 1015.9 |
| 20260904151410 | 93 | 30 | 1.7 | 2.6 | 0.00 | 0.00 | 0.00 | 28 | 1015.9 |
| 20260904150910 | 93 | 96 | 0.9 | 2.6 | 0.00 | 0.00 | 0.00 | 28 | 1015.9 |
| 20260904150410 | 93 | 324 | 2.6 | 2.6 | 0.00 | 0.00 | 0.00 | 27 | 1015.9 |
| 20260904145910 | 93 | 278 | 0.9 | 2.6 | 0.00 | 0.00 | 0.00 | 28 | 1015.8 |
| 20260904144910 | 94 | 92 | 0.9 | 2.6 | 0.00 | 0.00 | 0.00 | 28 | 1015.8 |
| 20260904143411 | 94 | 327 | 1.7 | 2.6 | 0.00 | 0.00 | 0.00 | 29 | 1015.8 |
| 20260904142410 | 93 | 54 | 1.7 | 2.6 | 0.00 | 0.00 | 0.00 | 29 | 1015.7 |
| 20260904141910 | 93 | 3 | 1.7 | 2.6 | 0.00 | 0.00 | 0.00 | 30 | 1015.6 |
| 20260904141411 | 93 | 54 | 1.7 | 2.6 | 0.00 | 0.00 | 0.00 | 30 | 1015.7 |